Data No, UTC Date,UTC Time,Latitude,Longitude,Course(deg),Temp(degC),Sal(psu)
496,2021/3/20,8:15,42-36.95N,141-37.09E,210,2.386,32.0492
497,2021/3/20,8:16,42-36.72N,141-36.89E,211,2.169,32.0597
498,2021/3/20,8:17,42-36.48N,141-36.78E,191,2.068,32.1258
499,2021/3/20,8:18,42-36.20N,141-36.77E,179,2.036,32.1994
500,2021/3/20,8:19,42-35.92N,141-36.78E,177,2.092,32.2017
501,2021/3/20,8:20,42-35.62N,141-36.81E,177,2.08,32.2368
502,2021/3/20,8:21,42-35.32N,141-36.82E,178,2.046,32.2089
503,2021/3/20,8:22,42-35.02N,141-36.83E,178,2.038,32.192
504,2021/3/20,8:23,42-34.71N,141-36.84E,179,2.005,32.1931
505,2021/3/20,8:24,42-34.40N,141-36.84E,179,2.004,32.1782
506,2021/3/20,8:25,42-34.08N,141-36.85E,179,2.042,32.1695
507,2021/3/20,8:26,42-33.75N,141-36.85E,179,2.074,32.1758
508,2021/3/20,8:27,42-33.44N,141-36.86E,179,2.07,32.1631
509,2021/3/20,8:28,42-33.11N,141-36.86E,179,2.086,32.1735
510,2021/3/20,8:29,42-32.78N,141-36.87E,179,2.048,32.1929
511,2021/3/20,8:30,42-32.45N,141-36.87E,179,2.055,32.1941
512,2021/3/20,8:31,42-32.11N,141-36.88E,179,2.108,32.1902
513,2021/3/20,8:32,42-31.78N,141-36.88E,179,2.132,32.1946
514,2021/3/20,8:33,42-31.44N,141-36.88E,179,2.132,32.1902
515,2021/3/20,8:34,42-31.10N,141-36.89E,179,2.155,32.1768
516,2021/3/20,8:35,42-30.76N,141-36.89E,179,2.13,32.1893
517,2021/3/20,8:36,42-30.41N,141-36.90E,179,2.127,32.1896
518,2021/3/20,8:37,42-30.07N,141-36.90E,179,2.121,32.1724
519,2021/3/20,8:38,42-29.71N,141-36.90E,179,2.048,32.1762
520,2021/3/20,8:39,42-29.31N,141-36.91E,179,1.948,32.1735
521,2021/3/20,8:40,42-28.96N,141-36.91E,179,1.849,32.1668
522,2021/3/20,8:41,42-28.64N,141-36.92E,179,1.71,32.1603
523,2021/3/20,8:42,42-28.29N,141-36.92E,179,1.627,32.1682
524,2021/3/20,8:43,42-27.93N,141-36.93E,179,1.435,32.1607
525,2021/3/20,8:44,42-27.56N,141-36.93E,179,1.375,32.128
526,2021/3/20,8:45,42-27.20N,141-36.94E,179,1.361,32.1192
527,2021/3/20,8:46,42-26.83N,141-36.95E,179,1.353,32.1026
528,2021/3/20,8:47,42-26.47N,141-36.95E,179,1.354,32.0851
529,2021/3/20,8:48,42-26.10N,141-36.96E,179,1.389,32.0788
530,2021/3/20,8:49,42-25.72N,141-36.97E,178,1.604,32.0757
531,2021/3/20,8:50,42-25.36N,141-36.97E,178,1.617,32.1117
532,2021/3/20,8:51,42-24.98N,141-36.99E,178,1.566,32.1409
533,2021/3/20,8:52,42-24.62N,141-36.99E,179,1.351,32.1535
534,2021/3/20,8:53,42-24.25N,141-37.00E,179,1.281,32.1385
535,2021/3/20,8:54,42-23.87N,141-37.01E,179,1.286,32.1214
536,2021/3/20,8:55,42-23.51N,141-37.02E,179,1.307,32.0937
537,2021/3/20,8:56,42-23.14N,141-37.02E,179,1.33,32.0714
538,2021/3/20,8:57,42-22.77N,141-37.03E,179,1.268,32.0648
539,2021/3/20,8:58,42-22.40N,141-37.03E,179,1.259,32.0594
540,2021/3/20,8:59,42-22.03N,141-37.03E,180,1.261,32.0458
541,2021/3/20,9:00,42-21.67N,141-37.03E,180,1.275,32.046
542,2021/3/20,9:01,42-21.29N,141-37.03E,180,1.23,32.0487
543,2021/3/20,9:02,42-20.93N,141-37.01E,182,1.218,32.045
544,2021/3/20,9:03,42-20.56N,141-36.98E,183,1.212,32.0431
545,2021/3/20,9:04,42-20.19N,141-36.94E,184,1.233,32.0529
546,2021/3/20,9:05,42-19.83N,141-36.90E,185,1.283,32.0581
547,2021/3/20,9:06,42-19.46N,141-36.85E,185,1.302,32.0556
548,2021/3/20,9:07,42-19.11N,141-36.80E,186,1.332,32.065
549,2021/3/20,9:08,42-18.74N,141-36.75E,186,1.433,32.0669
550,2021/3/20,9:09,42-18.37N,141-36.70E,185,1.565,32.0824
551,2021/3/20,9:10,42-18.02N,141-36.65E,185,1.529,32.1148
552,2021/3/20,9:11,42-17.64N,141-36.60E,185,1.473,32.1184
553,2021/3/20,9:12,42-17.29N,141-36.55E,186,1.473,32.1232
554,2021/3/20,9:13,42-16.93N,141-36.50E,185,1.634,32.1276
555,2021/3/20,9:14,42-16.56N,141-36.45E,185,1.657,32.1394
556,2021/3/20,9:15,42-16.20N,141-36.41E,185,1.503,32.1485
557,2021/3/20,9:16,42-15.83N,141-36.36E,185,1.41,32.1657
558,2021/3/20,9:17,42-15.47N,141-36.31E,185,1.431,32.1577
559,2021/3/20,9:18,42-15.11N,141-36.26E,185,1.432,32.1564
560,2021/3/20,9:19,42-14.74N,141-36.21E,185,1.422,32.1423
561,2021/3/20,9:20,42-14.38N,141-36.17E,185,1.397,32.1275
562,2021/3/20,9:21,42-14.01N,141-36.12E,185,1.39,32.1364
563,2021/3/20,9:22,42-13.65N,141-36.08E,185,1.393,32.1289
564,2021/3/20,9:23,42-13.29N,141-36.03E,185,1.408,32.1302
565,2021/3/20,9:24,42-12.92N,141-35.99E,185,1.444,32.1398
566,2021/3/20,9:25,42-12.57N,141-35.95E,185,1.538,32.135
567,2021/3/20,9:26,42-12.20N,141-35.90E,185,1.632,32.1383
568,2021/3/20,9:27,42-11.84N,141-35.86E,184,1.683,32.1561
569,2021/3/20,9:28,42-11.48N,141-35.82E,184,1.729,32.1681
570,2021/3/20,9:29,42-11.11N,141-35.78E,184,1.748,32.1707
571,2021/3/20,9:30,42-10.75N,141-35.75E,184,1.722,32.1893
572,2021/3/20,9:31,42-10.39N,141-35.71E,184,1.69,32.1827
573,2021/3/20,9:32,42-10.03N,141-35.68E,184,1.633,32.1862
574,2021/3/20,9:33,42-09.67N,141-35.64E,184,1.602,32.1838
575,2021/3/20,9:34,42-09.30N,141-35.61E,184,1.658,32.1639
576,2021/3/20,9:35,42-08.94N,141-35.57E,184,1.7,32.1735
577,2021/3/20,9:36,42-08.58N,141-35.54E,183,1.589,32.1904
578,2021/3/20,9:37,42-08.23N,141-35.50E,184,1.372,32.179
579,2021/3/20,9:38,42-07.87N,141-35.48E,183,1.199,32.1538
580,2021/3/20,9:39,42-07.50N,141-35.45E,182,1.117,32.1409
581,2021/3/20,9:40,42-07.15N,141-35.43E,182,1.123,32.116
582,2021/3/20,9:41,42-06.78N,141-35.41E,182,1.14,32.1027
583,2021/3/20,9:42,42-06.43N,141-35.39E,182,1.135,32.095
584,2021/3/20,9:43,42-06.08N,141-35.37E,182,1.091,32.0772
585,2021/3/20,9:44,42-05.71N,141-35.35E,182,1.092,32.0957
586,2021/3/20,9:45,42-05.36N,141-35.33E,182,1.102,32.0827
587,2021/3/20,9:46,42-05.00N,141-35.30E,182,1.124,32.0905
588,2021/3/20,9:47,42-04.64N,141-35.28E,182,1.109,32.0921
589,2021/3/20,9:48,42-04.29N,141-35.26E,182,1.136,32.0875
590,2021/3/20,9:49,42-03.87N,141-35.24E,181,1.139,32.0774
591,2021/3/20,9:50,42-03.52N,141-35.22E,181,1.119,32.0808
592,2021/3/20,9:51,42-03.18N,141-35.21E,181,1.105,32.0803
593,2021/3/20,9:52,42-02.84N,141-35.20E,181,1.081,32.0744
594,2021/3/20,9:53,42-02.48N,141-35.18E,182,1.069,32.0908
595,2021/3/20,9:54,42-02.11N,141-35.16E,182,1.065,32.0936
596,2021/3/20,9:55,42-01.76N,141-35.15E,182,1.168,32.0739
597,2021/3/20,9:56,42-01.39N,141-35.13E,181,1.416,32.0902
598,2021/3/20,9:57,42-01.04N,141-35.12E,181,1.454,32.1056
599,2021/3/20,9:58,42-00.63N,141-35.10E,181,1.439,32.1178
600,2021/3/20,9:59,42-00.26N,141-35.09E,181,1.345,32.1317
601,2021/3/20,10:00,41-59.91N,141-35.08E,181,1.247,32.1284
602,2021/3/20,10:01,41-59.55N,141-35.06E,181,1.172,32.1088
603,2021/3/20,10:02,41-59.20N,141-35.05E,181,1.152,32.1058
604,2021/3/20,10:03,41-58.84N,141-35.03E,181,1.161,32.0946
605,2021/3/20,10:04,41-58.47N,141-35.02E,181,1.169,32.0868
606,2021/3/20,10:05,41-58.12N,141-35.01E,181,1.193,32.0968
607,2021/3/20,10:06,41-57.76N,141-34.99E,181,1.175,32.0983
608,2021/3/20,10:07,41-57.41N,141-34.98E,181,1.208,32.0955
609,2021/3/20,10:08,41-57.11N,141-34.96E,182,1.185,32.1079
610,2021/3/20,10:09,41-56.74N,141-34.94E,182,1.173,32.1188
611,2021/3/20,10:10,41-56.40N,141-34.92E,182,1.161,32.1233
612,2021/3/20,10:11,41-56.04N,141-34.91E,182,1.168,32.1346
613,2021/3/20,10:12,41-55.69N,141-34.89E,181,1.211,32.1332
614,2021/3/20,10:13,41-55.33N,141-34.88E,182,1.244,32.1346
615,2021/3/20,10:14,41-54.92N,141-34.86E,181,1.249,32.1401
616,2021/3/20,10:15,41-54.57N,141-34.85E,180,1.24,32.1469
617,2021/3/20,10:16,41-54.22N,141-34.85E,180,1.21,32.1478
618,2021/3/20,10:17,41-53.86N,141-34.85E,180,1.196,32.162
619,2021/3/20,10:18,41-53.50N,141-34.85E,179,1.186,32.1599
620,2021/3/20,10:19,41-53.14N,141-34.85E,179,1.169,32.1615
621,2021/3/20,10:20,41-52.79N,141-34.85E,179,1.205,32.1612
622,2021/3/20,10:21,41-52.43N,141-34.85E,179,1.209,32.1508
623,2021/3/20,10:22,41-52.08N,141-34.85E,179,1.211,32.1579
624,2021/3/20,10:23,41-51.73N,141-34.84E,180,1.217,32.1681
625,2021/3/20,10:24,41-51.37N,141-34.84E,180,1.239,32.1608
626,2021/3/20,10:25,41-51.02N,141-34.84E,179,1.213,32.1632
627,2021/3/20,10:26,41-50.66N,141-34.83E,179,1.211,32.1705
628,2021/3/20,10:27,41-50.31N,141-34.83E,180,1.209,32.1699
629,2021/3/20,10:28,41-49.95N,141-34.83E,179,1.24,32.1887
630,2021/3/20,10:29,41-49.59N,141-34.82E,179,1.327,32.1803
631,2021/3/20,10:30,41-49.24N,141-34.82E,179,1.443,32.177
632,2021/3/20,10:31,41-48.89N,141-34.83E,178,1.519,32.1861
633,2021/3/20,10:32,41-48.54N,141-34.84E,178,1.584,32.1831
634,2021/3/20,10:33,41-48.19N,141-34.84E,179,1.654,32.1914
635,2021/3/20,10:34,41-47.83N,141-34.84E,179,1.698,32.2185
636,2021/3/20,10:35,41-47.48N,141-34.84E,179,1.7,32.2299
637,2021/3/20,10:36,41-47.13N,141-34.85E,179,1.634,32.2418
638,2021/3/20,10:37,41-46.79N,141-34.86E,178,1.607,32.2443
639,2021/3/20,10:38,41-46.44N,141-34.87E,179,1.665,32.2407
640,2021/3/20,10:39,41-46.09N,141-34.88E,176,1.616,32.2383
641,2021/3/20,10:40,41-45.75N,141-34.92E,175,6.785,32.2492
642,2021/3/20,10:41,41-45.41N,141-34.95E,176,8.15,32.6865
643,2021/3/20,10:42,41-45.06N,141-34.96E,178,8.397,32.8074
644,2021/3/20,10:43,41-44.72N,141-34.97E,178,8.533,33.0751
645,2021/3/20,10:44,41-44.38N,141-34.97E,179,8.608,33.2466
646,2021/3/20,10:45,41-44.04N,141-34.98E,179,8.719,33.3198
647,2021/3/20,10:46,41-43.70N,141-34.98E,179,8.795,33.3611
648,2021/3/20,10:47,41-43.36N,141-34.98E,178,8.834,33.3969
649,2021/3/20,10:48,41-43.02N,141-34.99E,179,8.874,33.4099
650,2021/3/20,10:49,41-42.67N,141-35.00E,178,8.879,33.4413
651,2021/3/20,10:50,41-42.33N,141-35.00E,178,8.896,33.4263
652,2021/3/20,10:51,41-42.04N,141-35.00E,180,8.917,33.4451
653,2021/3/20,10:52,41-41.69N,141-35.01E,179,8.914,33.4425
654,2021/3/20,10:53,41-41.35N,141-35.01E,180,8.918,33.4439
655,2021/3/20,10:54,41-41.00N,141-35.01E,180,8.906,33.4517
656,2021/3/20,10:55,41-40.67N,141-35.03E,178,8.899,33.4609
657,2021/3/20,10:56,41-40.32N,141-35.03E,179,8.881,33.4525
658,2021/3/20,10:57,41-39.97N,141-35.03E,179,8.829,33.4585
659,2021/3/20,10:58,41-39.63N,141-35.05E,177,8.809,33.4583
660,2021/3/20,10:59,41-39.28N,141-35.08E,176,8.797,33.4572
661,2021/3/20,11:00,41-38.90N,141-35.12E,175,8.739,33.46
662,2021/3/20,11:01,41-38.56N,141-35.15E,175,8.667,33.4494
663,2021/3/20,11:02,41-38.20N,141-35.18E,175,8.711,33.4448
664,2021/3/20,11:03,41-37.84N,141-35.21E,175,8.725,33.4477
665,2021/3/20,11:04,41-37.55N,141-35.23E,176,8.723,33.4463
666,2021/3/20,11:05,41-37.21N,141-35.26E,176,8.766,33.4457
667,2021/3/20,11:06,41-36.86N,141-35.29E,176,8.771,33.4595
668,2021/3/20,11:07,41-36.50N,141-35.32E,176,8.783,33.4565
669,2021/3/20,11:08,41-36.15N,141-35.35E,176,8.772,33.4648
670,2021/3/20,11:09,41-35.79N,141-35.37E,176,8.771,33.451
671,2021/3/20,11:10,41-35.44N,141-35.40E,177,8.771,33.4608
672,2021/3/20,11:11,41-35.08N,141-35.41E,177,8.79,33.4628
673,2021/3/20,11:12,41-34.72N,141-35.43E,178,8.802,33.4535
674,2021/3/20,11:13,41-34.37N,141-35.45E,177,8.849,33.4475
675,2021/3/20,11:14,41-34.00N,141-35.47E,177,8.928,33.4631
676,2021/3/20,11:15,41-33.65N,141-35.50E,176,8.951,33.4545
677,2021/3/20,11:16,41-33.24N,141-35.52E,177,8.958,33.4573
678,2021/3/20,11:17,41-32.92N,141-35.53E,177,8.964,33.4629
679,2021/3/20,11:18,41-32.58N,141-35.55E,178,8.972,33.4701
680,2021/3/20,11:19,41-32.21N,141-35.56E,177,8.978,33.4629
681,2021/3/20,11:20,41-31.86N,141-35.57E,178,8.984,33.4666
682,2021/3/20,11:21,41-31.50N,141-35.59E,178,8.991,33.4629
683,2021/3/20,11:22,41-31.13N,141-35.60E,178,8.997,33.4613
684,2021/3/20,11:23,41-30.78N,141-35.61E,179,9.01,33.4585
685,2021/3/20,11:24,41-30.41N,141-35.61E,178,9.016,33.4559
686,2021/3/20,11:25,41-30.05N,141-35.62E,179,9.02,33.4449
687,2021/3/20,11:26,41-29.69N,141-35.62E,179,9.025,33.4552
688,2021/3/20,11:27,41-29.32N,141-35.63E,178,9.03,33.4521
689,2021/3/20,11:28,41-28.96N,141-35.63E,179,9.037,33.4518
690,2021/3/20,11:29,41-28.60N,141-35.63E,180,9.028,33.4537
691,2021/3/20,11:30,41-28.24N,141-35.63E,180,9.032,33.461
692,2021/3/20,11:31,41-27.88N,141-35.63E,180,9.031,33.4511
693,2021/3/20,11:32,41-27.51N,141-35.62E,180,9.037,33.4537
694,2021/3/20,11:33,41-27.16N,141-35.62E,180,9.039,33.4542
695,2021/3/20,11:34,41-26.79N,141-35.61E,180,9.037,33.4519
696,2021/3/20,11:35,41-26.44N,141-35.60E,181,9.036,33.4588
697,2021/3/20,11:36,41-26.08N,141-35.60E,177,9.042,33.4506
698,2021/3/20,11:37,41-25.73N,141-35.67E,167,9.043,33.4453
699,2021/3/20,11:38,41-25.40N,141-35.79E,164,9.053,33.4477
700,2021/3/20,11:39,41-25.05N,141-35.92E,163,9.051,33.4462
701,2021/3/20,11:40,41-24.72N,141-36.07E,160,9.043,33.4468
702,2021/3/20,11:41,41-24.35N,141-36.25E,159,9.045,33.4497
703,2021/3/20,11:42,41-24.02N,141-36.41E,159,9.034,33.4579
704,2021/3/20,11:43,41-23.69N,141-36.57E,159,9.039,33.4626
705,2021/3/20,11:44,41-23.36N,141-36.73E,159,9.039,33.4614
706,2021/3/20,11:45,41-23.04N,141-36.89E,161,9.036,33.4644
707,2021/3/20,11:46,41-22.72N,141-37.05E,159,9.014,33.4625
708,2021/3/20,11:47,41-22.39N,141-37.21E,160,8.997,33.4623
709,2021/3/20,11:48,41-22.07N,141-37.36E,160,8.974,33.4562
710,2021/3/20,11:49,41-21.74N,141-37.51E,161,8.969,33.453
711,2021/3/20,11:50,41-21.42N,141-37.66E,160,8.966,33.4578
712,2021/3/20,11:51,41-21.09N,141-37.81E,160,8.975,33.4619
713,2021/3/20,11:52,41-20.77N,141-37.96E,161,8.971,33.4563
714,2021/3/20,11:53,41-20.44N,141-38.11E,161,8.969,33.458
715,2021/3/20,11:54,41-20.11N,141-38.25E,161,8.974,33.466
716,2021/3/20,11:55,41-19.79N,141-38.39E,161,8.957,33.4564
717,2021/3/20,11:56,41-19.47N,141-38.53E,161,8.973,33.447
718,2021/3/20,11:57,41-19.14N,141-38.69E,160,8.929,33.4563
719,2021/3/20,11:58,41-18.83N,141-38.85E,160,8.783,33.4621
720,2021/3/20,11:59,41-18.55N,141-38.99E,159,8.725,33.462
721,2021/3/20,12:00,41-18.23N,141-39.15E,158,8.712,33.4582
722,2021/3/20,12:01,41-17.91N,141-39.34E,157,8.727,33.4591
723,2021/3/20,12:02,41-17.59N,141-39.51E,157,8.774,33.4506
724,2021/3/20,12:03,41-17.24N,141-39.70E,158,8.806,33.4492
725,2021/3/20,12:04,41-16.93N,141-39.86E,158,8.84,33.4542
726,2021/3/20,12:05,41-16.60N,141-40.04E,157,8.844,33.4401
727,2021/3/20,12:06,41-16.29N,141-40.21E,157,8.841,33.453
728,2021/3/20,12:07,41-16.01N,141-40.36E,157,8.849,33.4477
729,2021/3/20,12:08,41-15.71N,141-40.53E,157,8.859,33.4507
730,2021/3/20,12:09,41-15.39N,141-40.69E,158,8.863,33.4496
731,2021/3/20,12:10,41-15.04N,141-40.87E,158,8.877,33.4647
732,2021/3/20,12:11,41-14.74N,141-41.04E,157,8.882,33.4526
733,2021/3/20,12:12,41-14.40N,141-41.22E,158,8.886,33.4649
734,2021/3/20,12:13,41-14.08N,141-41.38E,158,8.889,33.4591
735,2021/3/20,12:14,41-13.76N,141-41.55E,158,8.895,33.4642
736,2021/3/20,12:15,41-13.48N,141-41.70E,157,8.895,33.455
737,2021/3/20,12:16,41-13.18N,141-41.86E,158,8.897,33.4599
738,2021/3/20,12:17,41-12.85N,141-42.03E,158,8.89,33.4463
739,2021/3/20,12:18,41-12.54N,141-42.19E,159,8.891,33.4572
740,2021/3/20,12:19,41-12.22N,141-42.35E,159,8.89,33.4647
741,2021/3/20,12:20,41-11.89N,141-42.52E,158,8.89,33.4513
742,2021/3/20,12:21,41-11.58N,141-42.68E,159,8.885,33.4537
743,2021/3/20,12:22,41-11.25N,141-42.84E,159,8.876,33.4676
744,2021/3/20,12:23,41-10.94N,141-43.00E,159,8.877,33.4557
745,2021/3/20,12:24,41-10.61N,141-43.15E,159,8.882,33.4549
746,2021/3/20,12:25,41-10.29N,141-43.32E,159,8.88,33.4633
747,2021/3/20,12:26,41-09.97N,141-43.47E,160,8.877,33.4655
748,2021/3/20,12:27,41-09.64N,141-43.63E,159,8.872,33.4629
749,2021/3/20,12:28,41-09.32N,141-43.79E,160,8.866,33.4637
750,2021/3/20,12:29,41-09.00N,141-43.94E,160,8.856,33.4645
751,2021/3/20,12:30,41-08.67N,141-44.10E,159,8.838,33.4619
752,2021/3/20,12:31,41-08.35N,141-44.25E,160,8.821,33.4662
753,2021/3/20,12:32,41-08.02N,141-44.41E,160,8.819,33.4557
754,2021/3/20,12:33,41-07.70N,141-44.56E,160,8.818,33.4457
755,2021/3/20,12:34,41-07.37N,141-44.71E,161,8.821,33.4572
756,2021/3/20,12:35,41-07.04N,141-44.86E,160,8.819,33.451
757,2021/3/20,12:36,41-06.71N,141-45.01E,160,8.825,33.4547
758,2021/3/20,12:37,41-06.38N,141-45.16E,160,8.831,33.4545
759,2021/3/20,12:38,41-06.05N,141-45.31E,160,8.824,33.467
760,2021/3/20,12:39,41-05.72N,141-45.46E,161,8.825,33.4545
761,2021/3/20,12:40,41-05.39N,141-45.61E,160,8.828,33.4668
762,2021/3/20,12:41,41-05.06N,141-45.75E,163,8.822,33.4613
763,2021/3/20,12:42,41-04.72N,141-45.86E,165,8.814,33.4655
764,2021/3/20,12:43,41-04.39N,141-45.98E,166,8.815,33.4594
765,2021/3/20,12:44,41-04.05N,141-46.09E,166,8.814,33.4633
766,2021/3/20,12:45,41-03.71N,141-46.19E,166,8.81,33.4506
767,2021/3/20,12:46,41-03.37N,141-46.30E,165,8.826,33.4621
768,2021/3/20,12:47,41-02.98N,141-46.43E,166,8.86,33.4571
769,2021/3/20,12:48,41-02.67N,141-46.53E,166,8.88,33.4556
770,2021/3/20,12:49,41-02.35N,141-46.64E,165,8.889,33.4532
771,2021/3/20,12:50,41-02.00N,141-46.75E,166,8.892,33.4708
772,2021/3/20,12:51,41-01.61N,141-46.88E,165,8.902,33.4597
773,2021/3/20,12:52,41-01.26N,141-47.00E,166,8.913,33.4667
774,2021/3/20,12:53,41-00.92N,141-47.11E,166,8.922,33.4647
775,2021/3/20,12:54,41-00.58N,141-47.21E,166,8.925,33.4674
776,2021/3/20,12:55,41-00.23N,141-47.33E,166,8.924,33.4573
777,2021/3/20,12:56,40-59.89N,141-47.44E,165,8.92,33.4618
778,2021/3/20,12:57,40-59.54N,141-47.55E,167,8.916,33.4464
779,2021/3/20,12:58,40-59.20N,141-47.65E,167,8.913,33.4567
780,2021/3/20,12:59,40-58.85N,141-47.76E,167,8.916,33.4563
781,2021/3/20,13:00,40-58.55N,141-47.85E,167,8.924,33.4506
782,2021/3/20,13:01,40-58.21N,141-47.96E,167,8.924,33.4489
783,2021/3/20,13:02,40-57.85N,141-48.06E,167,8.922,33.4627
784,2021/3/20,13:03,40-57.51N,141-48.16E,167,8.927,33.4511
785,2021/3/20,13:04,40-57.16N,141-48.26E,167,8.931,33.4532
786,2021/3/20,13:05,40-56.80N,141-48.36E,168,8.932,33.4568
787,2021/3/20,13:06,40-56.46N,141-48.46E,167,8.928,33.461
788,2021/3/20,13:07,40-56.05N,141-48.58E,168,8.933,33.4563
789,2021/3/20,13:08,40-55.70N,141-48.67E,168,8.925,33.4521
790,2021/3/20,13:09,40-55.35N,141-48.77E,167,8.919,33.459
791,2021/3/20,13:10,40-54.99N,141-48.88E,168,8.901,33.4548
792,2021/3/20,13:11,40-54.64N,141-48.97E,168,8.868,33.4553
793,2021/3/20,13:12,40-54.32N,141-49.06E,167,8.849,33.4522
794,2021/3/20,13:13,40-53.94N,141-49.18E,167,8.831,33.4489
795,2021/3/20,13:14,40-53.58N,141-49.28E,167,8.774,33.4488
796,2021/3/20,13:15,40-53.27N,141-49.37E,167,8.71,33.4495
797,2021/3/20,13:16,40-52.92N,141-49.47E,167,8.638,33.4447
798,2021/3/20,13:17,40-52.56N,141-49.57E,167,8.602,33.4459
799,2021/3/20,13:18,40-52.21N,141-49.68E,167,8.58,33.4447
800,2021/3/20,13:19,40-51.86N,141-49.78E,167,8.561,33.4312
801,2021/3/20,13:20,40-51.50N,141-49.89E,166,8.539,33.4272
802,2021/3/20,13:21,40-51.15N,141-50.00E,166,8.551,33.4257
803,2021/3/20,13:22,40-50.80N,141-50.11E,166,8.56,33.4189
804,2021/3/20,13:23,40-50.45N,141-50.22E,166,7.954,33.4214
805,2021/3/20,13:24,40-50.09N,141-50.33E,165,6.449,33.3918
806,2021/3/20,13:25,40-49.70N,141-50.46E,166,6.018,33.2907
807,2021/3/20,13:26,40-49.36N,141-50.58E,165,6.3,33.1372
808,2021/3/20,13:27,40-49.01N,141-50.69E,165,6.721,33.0657
809,2021/3/20,13:28,40-48.66N,141-50.81E,165,7.245,33.0612
810,2021/3/20,13:29,40-48.32N,141-50.92E,165,7.411,33.1205
811,2021/3/20,13:30,40-47.97N,141-51.05E,165,6.28,33.1751
812,2021/3/20,13:31,40-47.68N,141-51.15E,165,6.092,33.1384
813,2021/3/20,13:32,40-47.29N,141-51.28E,165,5.883,33.0581
814,2021/3/20,13:33,40-46.94N,141-51.40E,165,5.493,33.0028
815,2021/3/20,13:34,40-46.66N,141-51.50E,165,5.381,32.9587
816,2021/3/20,13:35,40-46.31N,141-51.62E,164,5.004,32.9102
817,2021/3/20,13:36,40-45.98N,141-51.74E,164,4.4,32.8679
818,2021/3/20,13:37,40-45.64N,141-51.86E,165,4.504,32.7747
819,2021/3/20,13:38,40-45.25N,141-52.00E,164,4.913,32.7392
820,2021/3/20,13:39,40-44.92N,141-52.12E,164,6.67,32.7506
821,2021/3/20,13:40,40-44.57N,141-52.24E,164,7.556,32.853
822,2021/3/20,13:41,40-44.24N,141-52.36E,164,7.846,33.0496
823,2021/3/20,13:42,40-43.94N,141-52.46E,164,8.012,33.1644
824,2021/3/20,13:43,40-43.55N,141-52.61E,165,8.069,33.2424
825,2021/3/20,13:44,40-43.27N,141-52.71E,164,8.289,33.2987
826,2021/3/20,13:45,40-42.93N,141-52.83E,165,8.347,33.3397
827,2021/3/20,13:46,40-42.58N,141-52.95E,165,8.441,33.3726
828,2021/3/20,13:47,40-42.25N,141-53.07E,165,8.479,33.3886
829,2021/3/20,13:48,40-41.92N,141-53.18E,166,8.502,33.3938
830,2021/3/20,13:49,40-41.58N,141-53.28E,166,8.507,33.4132
831,2021/3/20,13:50,40-41.24N,141-53.40E,165,8.5,33.419
832,2021/3/20,13:51,40-40.87N,141-53.53E,165,8.467,33.4239
833,2021/3/20,13:52,40-40.57N,141-53.64E,165,8.439,33.4235
834,2021/3/20,13:53,40-40.22N,141-53.75E,165,8.435,33.4153
835,2021/3/20,13:54,40-39.89N,141-53.86E,165,8.425,33.4204
836,2021/3/20,13:55,40-39.54N,141-53.98E,165,8.419,33.4085
837,2021/3/20,13:56,40-39.21N,141-54.09E,165,8.388,33.4129
838,2021/3/20,13:57,40-38.88N,141-54.20E,165,8.257,33.4075
839,2021/3/20,13:58,40-38.54N,141-54.31E,165,8.136,33.4102
840,2021/3/20,13:59,40-38.21N,141-54.42E,165,8.004,33.3931
841,2021/3/20,14:00,40-37.87N,141-54.53E,165,7.852,33.3709
842,2021/3/20,14:01,40-37.53N,141-54.64E,166,7.758,33.3449
843,2021/3/20,14:02,40-37.20N,141-54.74E,167,7.843,33.3312
844,2021/3/20,14:03,40-36.85N,141-54.84E,168,7.926,33.3276
845,2021/3/20,14:04,40-36.52N,141-54.93E,168,7.955,33.3291
846,2021/3/20,14:05,40-36.17N,141-55.03E,168,7.924,33.3345
847,2021/3/20,14:06,40-35.84N,141-55.12E,167,7.943,33.3386
848,2021/3/20,14:07,40-35.50N,141-55.22E,167,8.02,33.3408
849,2021/3/20,14:08,40-35.15N,141-55.32E,167,8.112,33.3515
850,2021/3/20,14:09,40-34.82N,141-55.41E,168,8.169,33.3755
851,2021/3/20,14:10,40-34.47N,141-55.50E,168,8.18,33.3748
852,2021/3/20,14:11,40-34.12N,141-55.59E,167,8.167,33.3894
853,2021/3/20,14:12,40-33.77N,141-55.69E,167,8.171,33.3945
854,2021/3/20,14:13,40-33.42N,141-55.80E,168,8.178,33.3949
855,2021/3/20,14:14,40-33.11N,141-55.88E,168,8.177,33.3957
856,2021/3/20,14:15,40-32.76N,141-55.98E,167,8.138,33.402
857,2021/3/20,14:16,40-32.42N,141-56.08E,167,8.097,33.3973
858,2021/3/20,14:17,40-32.08N,141-56.18E,167,8.025,33.3956
859,2021/3/20,14:18,40-31.72N,141-56.28E,167,7.931,33.3821
860,2021/3/20,14:19,40-31.39N,141-56.38E,167,7.872,33.3779
861,2021/3/20,14:20,40-31.03N,141-56.48E,167,7.848,33.3699
862,2021/3/20,14:21,40-30.71N,141-56.57E,167,7.834,33.3471
863,2021/3/20,14:22,40-30.36N,141-56.68E,167,7.832,33.3463
864,2021/3/20,14:23,40-30.01N,141-56.77E,167,7.818,33.3557
865,2021/3/20,14:24,40-29.68N,141-56.86E,167,7.811,33.3523
866,2021/3/20,14:25,40-29.35N,141-56.97E,167,7.815,33.3448
867,2021/3/20,14:26,40-29.00N,141-57.08E,167,7.824,33.3413
868,2021/3/20,14:27,40-28.65N,141-57.18E,168,7.855,33.3437
869,2021/3/20,14:28,40-28.36N,141-57.27E,166,7.894,33.3472
870,2021/3/20,14:29,40-28.03N,141-57.38E,166,7.888,33.3566
871,2021/3/20,14:30,40-27.64N,141-57.49E,167,7.918,33.3489
872,2021/3/20,14:31,40-27.31N,141-57.60E,167,7.95,33.3522
873,2021/3/20,14:32,40-26.97N,141-57.69E,167,7.948,33.3594
874,2021/3/20,14:33,40-26.63N,141-57.80E,167,7.962,33.3677
875,2021/3/20,14:34,40-26.30N,141-57.90E,167,8.043,33.369
876,2021/3/20,14:35,40-25.96N,141-58.02E,166,8.096,33.3682
877,2021/3/20,14:36,40-25.63N,141-58.12E,167,8.15,33.3833
878,2021/3/20,14:37,40-25.29N,141-58.24E,167,8.178,33.3904
879,2021/3/20,14:38,40-25.01N,141-58.30E,167,8.232,33.3787
880,2021/3/20,14:39,40-24.68N,141-58.40E,166,8.242,33.391
881,2021/3/20,14:40,40-24.34N,141-58.51E,166,8.248,33.4034
882,2021/3/20,14:41,40-24.00N,141-58.61E,166,8.251,33.4022
883,2021/3/20,14:42,40-23.66N,141-58.71E,166,8.256,33.397
884,2021/3/20,14:43,40-23.32N,141-58.81E,166,8.279,33.3938
885,2021/3/20,14:44,40-22.99N,141-58.91E,166,8.303,33.3974
886,2021/3/20,14:45,40-22.65N,141-59.01E,167,8.308,33.404
887,2021/3/20,14:46,40-22.31N,141-59.11E,167,8.312,33.4124
888,2021/3/20,14:47,40-21.97N,141-59.21E,167,8.336,33.4095
889,2021/3/20,14:48,40-21.62N,141-59.31E,167,8.344,33.409
890,2021/3/20,14:49,40-21.25N,141-59.42E,167,8.354,33.4084
891,2021/3/20,14:50,40-20.90N,141-59.52E,168,8.366,33.4082
892,2021/3/20,14:51,40-20.55N,141-59.59E,171,8.37,33.4046
893,2021/3/20,14:52,40-20.20N,141-59.65E,172,8.369,33.4086
894,2021/3/20,14:53,40-19.86N,141-59.71E,172,8.368,33.4138
895,2021/3/20,14:54,40-19.56N,141-59.76E,172,8.338,33.4114
896,2021/3/20,14:55,40-19.21N,141-59.81E,173,8.3,33.4129